This is the latest recevied weather packets stored in our database for station/object AF9W-5. If no packets are shown the sender has not sent any weather packets the latest 1 day(s).
| Time | Temp. | Humidity | Pressure | Rain* | Wind** | Luminosity | Snow |
|---|---|---|---|---|---|---|---|
| 1778035920 | 17.22° C | 44% | 1011.7 hPa | 0 mm | 0 m/s | 0 W/m² | - |
| 1778035617 | 17.78° C | 44% | 1012 hPa | 0 mm | 0 m/s | 0 W/m² | - |
| 1778035010 | 17.78° C | 41% | 1011.5 hPa | 0 mm | 0 m/s | 0 W/m² | - |
| 1778034707 | 17.78° C | 41% | 1011.3 hPa | 0 mm | 0 m/s | 0 W/m² | - |
| 1778033799 | 18.33° C | 39% | 1011 hPa | 0 mm | 0.45 m/s, 128° | 3 W/m² | - |
| 1778033496 | 18.33° C | 39% | 1010.7 hPa | 0 mm | 0.45 m/s, 128° | 3 W/m² | - |
| 1778033193 | 18.89° C | 37% | 1010.8 hPa | 0 mm | 0.89 m/s, 118° | 6 W/m² | - |
| 1778032891 | 18.89° C | 37% | 1010.7 hPa | 0 mm | 0.89 m/s, 118° | 6 W/m² | - |
| 1778032588 | 18.89° C | 36% | 1010.4 hPa | 0 mm | 0.45 m/s, 81° | 9 W/m² | - |
| 1778032285 | 18.89° C | 35% | 1010.3 hPa | 0 mm | 1.34 m/s, 158° | 13 W/m² | - |
| 1778031983 | 18.89° C | 34% | 1010.8 hPa | 0 mm | 1.34 m/s, 208° | 17 W/m² | - |
| 1778031678 | 19.44° C | 34% | 1010.6 hPa | 0 mm | 0.45 m/s, 138° | 18 W/m² | - |
| 1778031377 | 19.44° C | 33% | 1010.4 hPa | 0 mm | 0.89 m/s, 160° | 23 W/m² | - |
| 1778031073 | 20° C | 33% | 1010.2 hPa | 0 mm | 1.79 m/s, 146° | 27 W/m² | - |
| 1778030769 | 20° C | 34% | 1010.3 hPa | 0 mm | 0.89 m/s, 164° | 40 W/m² | - |
| 1778030466 | 20° C | 34% | 1010.3 hPa | 0 mm | 1.34 m/s, 226° | 42 W/m² | - |
| 1778030164 | 20.56° C | 35% | 1010.3 hPa | 0 mm | 0.89 m/s, 175° | 40 W/m² | - |
| 1778029860 | 20.56° C | 35% | 1010.4 hPa | 0 mm | 0.45 m/s, 249° | 45 W/m² | - |
| 1778029560 | 20.56° C | 35% | 1010.1 hPa | 0 mm | 0.45 m/s, 80° | 53 W/m² | - |
| 1778029255 | 20.56° C | 35% | 1010.2 hPa | 0 mm | 0.45 m/s, 176° | 63 W/m² | - |
| 1778028953 | 20.56° C | 35% | 1009.9 hPa | 0 mm | 0.89 m/s, 216° | 66 W/m² | - |
| 1778028649 | 20.56° C | 35% | 1010 hPa | 0 mm | 0.45 m/s, 95° | 92 W/m² | - |
| 1778028346 | 20.56° C | 35% | 1010.1 hPa | 0 mm | 2.68 m/s, 203° | 62 W/m² | - |
| 1778028047 | 20.56° C | 36% | 1010.1 hPa | 0 mm | 0.45 m/s, 264° | 55 W/m² | - |
| 1778027739 | 20.56° C | 36% | 1010 hPa | 0 mm | 0.89 m/s, 153° | 59 W/m² | - |
* Rain latest hour (hover to see other rain measurements)
** Current wind speed in m/s (hover to see current wind gust speed)